Location: Newark
(45.2500°N, 7.5833°E)
Time: 14:36:37
(UTC+00:00)

Vanguard 3 - Pass Details

Date: 02 February 2020
Orbit: 508 x 3263 km, 33.3° (Epoch: 28 February)

Event Time Altitude Azimuth Distance (km) Brightness Sun altitude
Rises 21:26:03 0° 279° (W) 7,221 12.5 -49.6°
Reaches altitude 10° 21:32:56 10° 266° (W) 6,045 11.9 -50.6°
Maximum altitude 21:44:22 21° 228° (SW) 4,604 10.9 -52.2°
Enters shadow 21:46:14 20° 219° (SW) 4,503 10.8 -52.4°
Drops below altitude 10° 21:53:30 10° 186° (S) 4,676 - -53.4°
Sets 21:57:54 0° 171° (S) 5,217 - -54.0°
